N7SWJ Weather Reports


Display with metric or nautical units.
time (UTC)temp
F
wind
direction
speed
MPH
gust
MPH
rain 1hr
in
rain 24hr
in
rain mn
in
humidity
%
barometer
mb
20260505004020 58 65 0.0 0.0 0.00 0.00 0.00 57 1011.2
20260505003517 58 67 0.0 0.0 0.00 0.00 0.00 56 1010.9
20260505003014 58 90 0.0 0.0 0.00 0.00 0.00 59 1011.3
20260505002509 58 104 0.0 0.0 0.00 0.00 0.00 57 1011.0
20260505002008 58 122 2.0 3.0 0.00 0.00 0.00 55 1011.0
20260505001505 58 98 0.0 0.0 0.00 0.00 0.00 57 1011.0
20260505001002 58 110 0.0 1.0 0.00 0.00 0.00 56 1011.2
20260505000500 59 98 2.0 2.0 0.00 0.00 0.00 55 1011.3
20260504235956 59 80 1.0 2.0 0.00 0.00 0.00 52 1011.2
20260504235453 59 111 2.0 2.0 0.00 0.00 0.00 55 1011.3
20260504234950 60 90 0.0 0.0 0.00 0.00 0.00 53 1010.9
20260504234447 60 133 0.0 1.0 0.00 0.00 0.00 49 1010.8
20260504233943 61 136 2.0 3.0 0.00 0.00 0.00 48 1010.9
20260504233439 62 183 4.0 6.0 0.00 0.00 0.00 47 1010.6
20260504232937 65 134 1.0 2.0 0.00 0.00 0.00 37 1010.4
20260504232434 65 92 0.0 1.0 0.00 0.00 0.00 36 1010.2
20260504231931 65 65 1.0 2.0 0.00 0.00 0.00 35 1010.0
20260504231427 65 59 0.0 1.0 0.00 0.00 0.00 35 1010.0
20260504230923 65 64 0.0 0.0 0.00 0.00 0.00 35 1009.8
20260504230420 66 61 0.0 0.0 0.00 0.00 0.00 35 1009.5
20260504225919 66 64 0.0 0.0 0.00 0.00 0.00 34 1009.4
20260504225416 66 79 0.0 0.0 0.00 0.00 0.00 35 1009.5
20260504224913 66 60 1.0 1.0 0.00 0.00 0.00 35 1009.5
20260504224409 67 58 2.0 2.0 0.00 0.00 0.00 35 1009.8
20260504223907 67 17 3.0 3.0 0.00 0.00 0.00 34 1009.8
20260504223402 67 322 4.0 6.0 0.00 0.00 0.00 35 1009.5
20260504222858 67 341 2.0 2.0 0.00 0.00 0.00 35 1009.8
20260504222355 68 70 0.0 1.0 0.00 0.00 0.00 34 1009.7
20260504221854 68 87 0.0 0.0 0.00 0.00 0.00 34 1009.8
20260504221350 68 76 0.0 1.0 0.00 0.00 0.00 34 1009.8
20260504220847 67 10 1.0 2.0 0.00 0.00 0.00 34 1009.8
20260504220344 67 325 3.0 4.0 0.00 0.00 0.00 34 1010.1
20260504215841 67 64 0.0 1.0 0.00 0.00 0.00 35 1010.0
20260504215337 67 50 1.0 1.0 0.00 0.00 0.00 34 1010.2
20260504214834 67 40 3.0 4.0 0.00 0.00 0.00 34 1010.0
20260504214331 67 45 2.0 3.0 0.00 0.00 0.00 35 1010.1
20260504213827 67 54 2.0 3.0 0.00 0.00 0.00 34 1010.4
20260504213323 68 43 1.0 1.0 0.00 0.00 0.00 34 1010.2
20260504212821 68 69 0.0 0.0 0.00 0.00 0.00 34 1010.4
20260504212317 67 341 4.0 6.0 0.00 0.00 0.00 34 1010.2
20260504211815 68 43 2.0 3.0 0.00 0.00 0.00 34 1010.0
20260504211310 68 23 3.0 3.0 0.00 0.00 0.00 34 1010.1
20260504210808 69 36 1.0 2.0 0.00 0.00 0.00 33 1010.1
20260504210305 71 43 4.0 6.0 0.00 0.00 0.00 32 1009.8
20260504205802 71 326 2.0 2.0 0.00 0.00 0.00 31 1010.1
20260504205300 72 327 3.0 4.0 0.00 0.00 0.00 31 1009.8
20260504204758 70 333 6.0 10.0 0.00 0.00 0.00 32 1009.8
20260504204256 70 324 3.0 6.0 0.00 0.00 0.00 31 1009.5
20260504203755 69 59 4.0 6.0 0.00 0.00 0.00 31 1009.7
20260504203253 69 353 4.0 6.0 0.00 0.00 0.00 31 1009.5
20260504202752 69 358 4.0 4.0 0.00 0.00 0.00 31 1009.5
20260504202250 69 81 5.0 6.0 0.00 0.00 0.00 31 1009.4
20260504201747 69 354 3.0 3.0 0.00 0.00 0.00 31 1009.8
20260504201244 69 77 0.0 1.0 0.00 0.00 0.00 31 1009.7
20260504200742 69 59 6.0 9.0 0.00 0.00 0.00 30 1009.5
20260504200237 69 65 1.0 2.0 0.00 0.00 0.00 30 1009.7
20260504195734 69 280 3.0 4.0 0.00 0.00 0.00 30 1009.4
20260504195230 69 349 9.0 16.0 0.00 0.00 0.00 30 1009.3
20260504194728 69 26 9.0 13.0 0.00 0.00 0.00 29 1009.4
20260504194223 71 359 4.0 8.0 0.00 0.00 0.00 28 1009.3
20260504193720 71 219 1.0 2.0 0.00 0.00 0.00 27 1009.2
20260504193218 71 9 4.0 6.0 0.00 0.00 0.00 27 1009.3
20260504192716 73 63 9.0 14.0 0.00 0.00 0.00 25 1009.1
20260504192213 73 14 3.0 6.0 0.00 0.00 0.00 23 1008.9
20260504191712 73 14 4.0 4.0 0.00 0.00 0.00 25 1009.0
20260504191208 74 299 4.0 6.0 0.00 0.00 0.00 24 1008.9
20260504190703 74 20 3.0 4.0 0.00 0.00 0.00 24 1008.9
20260504190200 73 61 1.0 2.0 0.00 0.00 0.00 25 1009.1
20260504185657 73 61 6.0 7.0 0.00 0.00 0.00 24 1008.9
20260504185153 74 288 4.0 6.0 0.00 0.00 0.00 24 1008.7
20260504184650 76 70 3.0 4.0 0.00 0.00 0.00 24 1008.7
20260504184145 77 74 0.0 0.0 0.00 0.00 0.00 23 1008.7
20260504183642 77 61 1.0 1.0 0.00 0.00 0.00 23 1009.0
20260504183139 77 33 4.0 6.0 0.00 0.00 0.00 22 1009.2
20260504182637 77 41 0.0 1.0 0.00 0.00 0.00 24 1009.1
20260504182135 75 106 1.0 1.0 0.00 0.00 0.00 25 1009.0
20260504181632 75 220 3.0 4.0 0.00 0.00 0.00 25 1008.9
20260504181129 77 96 2.0 3.0 0.00 0.00 0.00 24 1008.9
20260504180628 77 39 1.0 1.0 0.00 0.00 0.00 24 1009.1
20260504180127 75 103 1.0 2.0 0.00 0.00 0.00 25 1008.7
20260504175624 75 131 2.0 3.0 0.00 0.00 0.00 25 1009.0
20260504175120 74 138 2.0 3.0 0.00 0.00 0.00 24 1009.2
20260504174618 76 83 2.0 3.0 0.00 0.00 0.00 24 1009.0
20260504174114 77 99 1.0 1.0 0.00 0.00 0.00 23 1009.2
20260504173611 77 128 0.0 1.0 0.00 0.00 0.00 24 1009.2
20260504173109 75 164 2.0 3.0 0.00 0.00 0.00 24 1009.4
20260504172605 75 153 1.0 2.0 0.00 0.00 0.00 23 1009.5
20260504172102 74 105 1.0 2.0 0.00 0.00 0.00 24 1009.4
20260504171558 74 66 1.0 1.0 0.00 0.00 0.00 25 1009.5
20260504171055 74 26 1.0 1.0 0.00 0.00 0.00 25 1009.5
20260504170551 73 159 4.0 4.0 0.00 0.00 0.00 24 1009.8
20260504150929 58 111 0.0 0.0 0.00 0.00 0.00 37 1010.5
20260504150426 57 103 0.0 0.0 0.00 0.00 0.00 38 1010.5
20260504140847 51 66 0.0 1.0 0.00 0.00 0.00 45 1010.7
20260504140343 51 153 1.0 1.0 0.00 0.00 0.00 46 1010.7
20260504130811 47 134 2.0 2.0 0.00 0.00 0.00 53 1010.7
20260504130307 46 132 1.0 1.0 0.00 0.00 0.00 54 1010.7
20260504120231 42 105 0.0 0.0 0.00 0.00 0.00 61 1010.7
20260504110658 43 108 0.0 0.0 0.00 0.00 0.00 60 1010.9
20260504110154 43 115 0.0 1.0 0.00 0.00 0.00 60 1010.8
20260504100119 45 91 0.0 0.0 0.00 0.00 0.00 59 1011.3
20260504081512 50 64 0.0 0.0 0.00 0.00 0.00 48 1012.0
20260504081007 50 78 0.0 0.0 0.00 0.00 0.00 48 1012.1
20260504080504 50 33 1.0 1.0 0.00 0.00 0.00 48 1012.0
20260504050317 58 37 1.0 1.0 0.00 0.00 0.00 39 1012.2
20260504045814 58 108 3.0 6.0 0.00 0.00 0.00 39 1012.0
20260504045309 58 61 2.0 3.0 0.00 0.00 0.00 39 1012.3
20260504044806 58 65 0.0 0.0 0.00 0.00 0.00 39 1012.2
20260504044304 59 81 1.0 1.0 0.00 0.00 0.00 38 1012.4
20260504043801 59 75 0.0 0.0 0.00 0.00 0.00 38 1012.5
20260504043258 59 94 1.0 1.0 0.00 0.00 0.00 37 1012.4
20260504042756 60 79 0.0 1.0 0.00 0.00 0.00 37 1012.5
20260504042251 60 46 2.0 3.0 0.00 0.00 0.00 37 1012.9
20260504041748 60 36 2.0 3.0 0.00 0.00 0.00 37 1012.8
20260504041244 60 60 0.0 1.0 0.00 0.00 0.00 36 1012.8
20260504040739 61 44 2.0 3.0 0.00 0.00 0.00 36 1012.9
20260504040237 61 56 2.0 2.0 0.00 0.00 0.00 35 1012.8
20260504035728 62 88 0.0 1.0 0.00 0.00 0.00 34 1012.7
20260504035225 63 51 0.0 0.0 0.00 0.00 0.00 33 1012.9
20260504034723 63 58 3.0 4.0 0.00 0.00 0.00 31 1012.4
20260504034220 64 73 1.0 1.0 0.00 0.00 0.00 30 1012.5
20260504033718 63 47 0.0 1.0 0.00 0.00 0.00 30 1012.9
20260504033214 61 58 0.0 1.0 0.00 0.00 0.00 32 1012.7
20260504032711 61 95 0.0 0.0 0.00 0.00 0.00 34 1012.2
20260504032203 60 95 0.0 0.0 0.00 0.00 0.00 34 1012.1
20260504031700 60 95 0.0 0.0 0.00 0.00 0.00 34 1012.1
20260504031156 60 95 0.0 0.0 0.00 0.00 0.00 33 1012.1
20260504030652 60 95 0.0 0.0 0.00 0.00 0.00 33 1012.1
20260504030150 61 95 0.0 0.0 0.00 0.00 0.00 33 1012.1
20260504025646 62 95 0.0 0.0 0.00 0.00 0.00 32 1012.0
20260504025143 63 95 0.0 0.0 0.00 0.00 0.00 31 1011.7
20260504024640 63 95 0.0 0.0 0.00 0.00 0.00 31 1012.0
20260504024137 64 95 0.0 0.0 0.00 0.00 0.00 30 1012.0
20260504023634 64 95 0.0 0.0 0.00 0.00 0.00 30 1011.9
20260504023130 64 95 0.0 0.0 0.00 0.00 0.00 29 1011.7
20260504022625 64 95 0.0 0.0 0.00 0.00 0.00 29 1011.9
20260504022116 65 95 0.0 0.0 0.00 0.00 0.00 29 1011.9
20260504021614 66 95 0.0 0.0 0.00 0.00 0.00 28 1011.9
20260504021110 66 95 0.0 0.0 0.00 0.00 0.00 28 1011.7
20260504020608 67 95 0.0 0.0 0.00 0.00 0.00 28 1011.7
20260504020104 67 96 0.0 0.0 0.00 0.00 0.00 27 1012.0
20260504015600 68 111 0.0 0.0 0.00 0.00 0.00 26 1011.9
20260504015055 68 263 0.0 1.0 0.00 0.00 0.00 26 1011.9
20260504014552 68 106 0.0 0.0 0.00 0.00 0.00 26 1012.0
20260504014049 68 104 0.0 0.0 0.00 0.00 0.00 26 1011.6
20260504013547 68 89 0.0 0.0 0.00 0.00 0.00 26 1011.9
20260504013044 68 114 0.0 1.0 0.00 0.00 0.00 26 1011.9
20260504012542 69 102 0.0 0.0 0.00 0.00 0.00 26 1011.9
20260504012039 69 112 0.0 0.0 0.00 0.00 0.00 25 1011.9
20260504011536 69 104 0.0 0.0 0.00 0.00 0.00 26 1011.9
20260504011032 69 105 0.0 0.0 0.00 0.00 0.00 25 1011.9
20260504010528 70 104 0.0 0.0 0.00 0.00 0.00 25 1011.6
20260504010024 70 104 0.0 0.0 0.00 0.00 0.00 25 1011.7
20260504005520 71 218 2.0 3.0 0.00 0.00 0.00 23 1011.9
20260504005019 71 93 0.0 0.0 0.00 0.00 0.00 24 1011.9
20260504004516 71 107 0.0 1.0 0.00 0.00 0.00 23 1012.2